Regional Weather Roundup
Issued by NWS Newport/Morehead, NC

Current Version | Previous Version | Graphics & Text | Print | Product List | Glossary Off
Versions: 1 2 3 4 5 6 7 8 9 10 11 12 13 14 15 16 17 18 19 20 21 22 23 24 25 26 27 28 29 30 31 32 33 34 35 36 37 38 39 40 41 42 43 44 45 46 47 48 49 50

499
ASUS42 KMHX 101213
RWRMHX
WEATHER ROUNDUP FOR EASTERN NORTH CAROLINA
NATIONAL WEATHER SERVICE NEWPORT/MOREHEAD CITY NC
700 AM EST WED FEB 10 2016

NOTE: "FAIR" INDICATES FEW OR NO CLOUDS BELOW 12,000 FEET
WITH NO SIGNIFICANT WEATHER AND/OR OBSTRUCTIONS TO VISIBILITY

NCZ015>017-031-032-045>047-102-103-101300-
NORTH COAST

CITY           SKY/WX    TMP DP  RH WIND       PRES   REMARKS
EDENTON        CLEAR     32  18  57 W10G18    29.88R
ELIZABETH CITY CLEAR     28  16  60 W9        29.85R
KITTY HAWK     MOSUNNY   32  18  56 W14G25    29.82R
MANTEO         CLEAR     31  18  59 W13G21    29.85R

$$

NCZ045>047-081-094-103-104-101300-
CENTRAL COAST

CITY           SKY/WX    TMP DP  RH WIND       PRES   REMARKS
FRISCO         CLEAR     33  19  56 W17G32    29.85R
SWANQUARTER      N/A    N/A N/A N/A W16G26    29.85S

$$

NCZ095-097-098-100-101-101300-
SOUTHERN COAST

CITY           SKY/WX    TMP DP  RH WIND       PRES   REMARKS
BEAUFORT       CLEAR     30  16  56 W14       29.92R WCI  19
CEDAR ISLAND     N/A     30 N/A N/A W20G29    29.94R WCI  18
JACKSONVILLE   CLEAR     29  16  58 W7        29.92R
PINEY ISLAND   SUNNY    N/A N/A N/A W15G29    29.89R
WILMINGTON     PTCLDY    33  17  51 W8        29.94R


$$

NCZ011>013-027>030-043-044-078>080-089-090>093-098-101300-
COASTAL PLAIN

CITY           SKY/WX    TMP DP  RH WIND       PRES   REMARKS
AHOSKIE        CLEAR     26  16  65 CALM      29.88R
CLINTON        PTCLDY    28  19  67 W5        29.94R
ELIZABETHTOWN  CLEAR     29  18  62 W3        29.94R
GOLDSBORO      PTCLDY    27  18  69 W8        29.90R
GREENVILLE     CLEAR     30  18  59 W6        29.92R
HAVELOCK       CLEAR     29  16  58 W10       29.92R WCI  20
KENANSVILLE    PTCLDY    27  17  68 CALM      29.93S
KINSTON        PTCLDY    28  16  59 W6        29.92R
NEW BERN       CLEAR     29  15  56 W12       29.92R WCI  19
RICHLANDS      CLEAR     28  12  50 SW5       29.93R
ROCKY MOUNT    PTCLDY    27  16  63 SW9       29.90R
WASHINGTON     CLEAR     28  16  59 W10       29.90R WCI  19
WHITEVILLE     CLEAR     30  16  56 CALM      29.94R

$$

AMZ130-135-150-152-154-156-158-170-250-252-270-ANZ085-086-088-633-658-670-101300-
MARINE OBSERVATIONS

STATION/POSITION TIME  TEMP    WIND        PRES    WAVE   SWELL
                       AIR SEA DIR/SP/G            HT/PER HT/PER
                 (UTC) (F)     (DEG/KT/KT) (MB)    (FT/S) (FT/S)
CHESAPEAKE LIGHT 1200   32     270/ 21/ 23 1009.5
64 E VA BEACH    1150   36 50  260/ 23/ 27 1007.6    8/14   5/14
DUCK             1100   31     280/ 19/ 24 1008.8
2 E DUCK         1111      44                N/A     4/14   3/14
OREGON INLET     1100   32 45  270/ 18/ 24 1009.8
13E OREGON INLT  1200      47                N/A     7/14   5/14
HATTERAS CG      1100   35 51  280/ 24/ 29 1009.9
DIAMOND BUOY     1150   39 73  290/ 27/ 35 1010.0    8/14   5/14
CAPE LOOKOUT     NOT AVBL
BEAUFORT LAB     1100   32 45  290/  9/ 15 1011.3
30 SE NEW RVR IN 1108   40 58              1011.8
30 SE NEW RVR IN 1125      58                N/A     8/ 9   3/14
27 SE WRIGHTSVLE 1108   39 60  360/ 19/ 27 1011.1
5 SE WRIGHTSVLE  1108   37 51  300/ 17/ 23 1013.2
225 S CAPE HAT   1150   56 68  280/ 33/ 43   N/A    16/10  11/10
41 SE CHARLESTON 1150   40 64  280/ 27/ 33 1015.0    8/ 7   2/15

$$




USA.gov is the U.S. government's official web portal to all federal, state and local government web resources and services.